Find Cluster Samba

NORAD ID: 26410 Int'l Des: 2000-041 Owner: ESA Country: I-ESA operational
HEOELLIPTICALRETROGRADEHEO_ELLIPTICAL

リアルタイム位置

3D地球を読み込み中...

Cluster Sambaについて

説明を読み込み中...

次回通過

Passes for default location (London). Set your location on the main map for personalized predictions.

高度履歴

Loading altitude history...

軌道要素

1 26410U 00041A 26107.89154034 .00002775 00000-0 00000+0 0 9998
2 26410 149.5763 40.7788 8981267 257.2151 0.6557 0.44836055 20031
Epoch: Apr 17, 2026 • Age: -19 hours

現在のステータス

高度 123887.9 km
速度 0.77 km/s
衛星直下点 30.10°N, 84.16°E
打ち上げ日 Jul 16, 2000
運用期間 25.7 years
タイプ other

技術仕様

分類 Payload
質量 1186.00 kg
乾燥質量 550.00 kg
総質量 1186.00 kg
長さ 1.30 m
直径 2.90 m
スパン 100.00 m
形状 Cyl + 4 Ant
製造者 ASTDF
バスタイプ Cluster
フェーズステータス In Orbit
所有者/国 ESA/I-ESA

Most Searched